This is the latest recevied weather packets stored in our database for station/object KE5VT. If no packets are shown the sender has not sent any weather packets the latest 10 day(s).
| Time | Temp. | Humidity | Pressure | Rain* | Wind** | Luminosity | Snow |
|---|---|---|---|---|---|---|---|
| 1777556324 | 13.89° C | 99% | 1006.6 hPa | 0 mm | - | 44 W/m² | - |
| 1777556021 | 13.89° C | 99% | 1006.6 hPa | 1.27 mm | - | 49 W/m² | - |
| 1777555716 | 13.89° C | 99% | 1006.3 hPa | 1.27 mm | - | 49 W/m² | - |
| 1777555412 | 13.89° C | 99% | 1006.5 hPa | 0 mm | - | 46 W/m² | - |
| 1777555109 | 14.44° C | 99% | 1006.9 hPa | 0 mm | - | 39 W/m² | - |
| 1777554807 | 15° C | 99% | 1007 hPa | 1.78 mm | - | 42 W/m² | - |
| 1777554503 | 15° C | 99% | 1007.4 hPa | 1.78 mm | - | 27 W/m² | - |
| 1777554200 | 15° C | 99% | 1007.5 hPa | 1.27 mm | - | 26 W/m² | - |
| 1777553897 | 15° C | 99% | 1007.8 hPa | 4.32 mm | - | 26 W/m² | - |
| 1777553593 | 15° C | 99% | 1007.8 hPa | 4.83 mm | - | 15 W/m² | - |
| 1777553289 | 15° C | 99% | 1007.7 hPa | 3.05 mm | - | 16 W/m² | - |
| 1777552986 | 15° C | 99% | 1008.1 hPa | 3.05 mm | - | 12 W/m² | - |
| 1777552685 | 15° C | 99% | 1008.6 hPa | 4.83 mm | - | 16 W/m² | - |
| 1777552382 | 15° C | 99% | 1008.9 hPa | 6.1 mm | - | 14 W/m² | - |
| 1777552078 | 15° C | 99% | 1008.8 hPa | 6.6 mm | - | 13 W/m² | - |
| 1777551776 | 15° C | 99% | 1009 hPa | 8.89 mm | - | 10 W/m² | - |
| 1777551473 | 15° C | 99% | 1008.9 hPa | 8.89 mm | - | 7 W/m² | - |
| 1777551170 | 15° C | 99% | 1009.1 hPa | 6.1 mm | - | 6 W/m² | - |
| 1777550868 | 14.44° C | 99% | 1009.3 hPa | 6.6 mm | - | 4 W/m² | - |
| 1777550563 | 14.44° C | 99% | 1008.8 hPa | 7.87 mm | - | 4 W/m² | - |
| 1777550259 | 15° C | 99% | 1008.6 hPa | 6.1 mm | - | 4 W/m² | - |
| 1777549956 | 15° C | 99% | 1008.4 hPa | 6.1 mm | - | 3 W/m² | - |
| 1777549652 | 15° C | 97% | 1008.3 hPa | 3.05 mm | - | 3 W/m² | - |
| 1777549348 | 15° C | 96% | 1008.1 hPa | 1.78 mm | - | 3 W/m² | - |
| 1777549046 | 15° C | 95% | 1008 hPa | 3.05 mm | - | 2 W/m² | - |
* Rain latest hour (hover to see other rain measurements)
** Current wind speed in m/s (hover to see current wind gust speed)